Weather History for KWVI - October, 2012

Change the Weather History Date:

Thursday, October 4, 2012

  Actual Average Record
Temperature  
Mean Temperature 60 °F 62 °F  
Max Temperature 67 °F 74 °F 99 °F (2014)
Min Temperature 53 °F 50 °F 40 °F (2009)
Degree Days  
Heating Degree Days 5    
Month to date heating degree days 7  
Since 1 July heating degree days 372  
Cooling Degree Days 0    
Month to date cooling degree days 28  
Year to date cooling degree days 54  
Growing Degree Days 10 (Base 50)    
Moisture  
Dew Point 53 °F    
Average Humidity 76    
Maximum Humidity 93    
Minimum Humidity 58    
Precipitation  
Precipitation 0.00 in - 0.26 in (2008)
Month to date precipitation 0.00  
Year to date precipitation 11.98  
Since 1 July precipitation 0.05  
Sea Level Pressure  
Sea Level Pressure 30.12 in    
Wind  
Wind Speed 5 mph (WSW)    
Max Wind Speed 13 mph    
Max Gust Speed 21 mph    
Visibility 10 miles    
Events      
T = Trace of Precipitation, MM = Missing Value Source: NWS Daily Summary

Daily Weather History Graph

Daily Weather History Graph

Search for Another Location

Airport or City:

Trip Planner

Search our weather history database for the weather conditions in past years. The results will help you decide how hot, cold, wet, or windy it might be!

Date:

Astronomy

Oct. 04, 2012 Rise Set
Actual Time 7:05 AM PDT 6:45 PM PDT
Civil Twilight 6:39 AM PDT 7:11 PM PDT
Nautical Twilight 6:09 AM PDT 7:41 PM PDT
Astronomical Twilight 5:39 AM PDT 8:11 PM PDT
Moon 9:31 PM PDT (10/4) 11:20 AM PDT (10/4)
Length of Visible Light 12h 31m
Length of Day
11h 39m
Waning Gibbous, 81% of the Moon is Illuminated
Oct 4
Waning Gibbous
Oct 8
Last Quarter
Oct 15
New
Oct 21
First Quarter
Oct 29
Full

Hourly Weather History & Observations

Time (PDT) Temp. Dew Point Humidity Pressure Visibility Wind Dir Wind Speed Gust Speed Precip Events Conditions
12:53 AM 59.0 °F 55.0 °F 87% 30.05 in 10.0 mi West 5.8 mph - N/A   Overcast
1:34 AM 59.0 °F 55.4 °F 88% 30.05 in 10.0 mi WSW 4.6 mph - N/A   Overcast
1:53 AM 59.0 °F 55.0 °F 87% 30.05 in 10.0 mi West 5.8 mph - N/A   Overcast
2:22 AM 59.0 °F 55.4 °F 88% 30.05 in 10.0 mi Variable 5.8 mph - N/A   Overcast
2:53 AM 59.0 °F 54.0 °F 83% 30.05 in 10.0 mi West 5.8 mph - N/A   Overcast
3:53 AM 59.0 °F 54.0 °F 83% 30.05 in 10.0 mi West 5.8 mph - N/A   Overcast
4:53 AM 59.0 °F 54.0 °F 83% 30.06 in 10.0 mi West 4.6 mph - N/A   Overcast
5:53 AM 59.0 °F 54.0 °F 83% 30.07 in 10.0 mi WSW 4.6 mph - N/A   Overcast
6:53 AM 59.0 °F 54.0 °F 83% 30.09 in 10.0 mi WSW 6.9 mph - N/A   Overcast
7:53 AM 59.0 °F 54.0 °F 83% 30.10 in 10.0 mi WSW 6.9 mph - N/A   Overcast
8:53 AM 59.0 °F 53.1 °F 81% 30.12 in 10.0 mi SW 5.8 mph - N/A   Overcast
9:53 AM 60.1 °F 53.1 °F 78% 30.14 in 10.0 mi WSW 5.8 mph - N/A   Overcast
10:53 AM 61.0 °F 53.1 °F 75% 30.16 in 10.0 mi Variable 4.6 mph - N/A   Overcast
11:21 AM 60.8 °F 53.6 °F 77% 30.16 in 10.0 mi WSW 4.6 mph - N/A   Overcast
11:53 AM 62.1 °F 53.1 °F 72% 30.16 in 10.0 mi SW 8.1 mph - N/A   Overcast
12:53 PM 62.1 °F 52.0 °F 70% 30.15 in 10.0 mi SW 6.9 mph - N/A   Overcast
1:53 PM 64.0 °F 52.0 °F 65% 30.14 in 10.0 mi South 8.1 mph - N/A   Overcast
2:39 PM 64.4 °F 51.8 °F 64% 30.12 in 10.0 mi SSW 5.8 mph - N/A   Partly Cloudy
2:53 PM 66.0 °F 52.0 °F 60% 30.12 in 10.0 mi WSW 9.2 mph - N/A   Clear
3:53 PM 66.0 °F 53.1 °F 63% 30.12 in 10.0 mi SSW 9.2 mph - N/A   Clear
4:53 PM 64.0 °F 53.1 °F 67% 30.12 in 10.0 mi WSW 8.1 mph - N/A   Clear
6:53 PM 57.9 °F 52.0 °F 81% 30.13 in 10.0 mi WSW 3.5 mph - N/A   Clear
7:53 PM 57.0 °F 52.0 °F 83% 30.13 in 10.0 mi Calm Calm - N/A   Clear
8:53 PM 55.9 °F 52.0 °F 87% 30.14 in 10.0 mi Calm Calm - N/A   Clear
9:53 PM 54.0 °F 51.1 °F 90% 30.15 in 10.0 mi Calm Calm - N/A   Clear
10:53 PM 53.1 °F 50.0 °F 89% 30.16 in 10.0 mi Calm Calm - N/A   Clear
11:16 PM 53.6 °F 50.0 °F 88% 30.16 in 10.0 mi NNW 3.5 mph - N/A   Partly Cloudy
11:29 PM 53.6 °F 50.0 °F 88% 30.16 in 10.0 mi NW 3.5 mph - N/A   Mostly Cloudy
11:45 PM 53.6 °F 50.0 °F 88% 30.16 in 10.0 mi NNW 3.5 mph - N/A   Scattered Clouds
11:53 PM 53.1 °F 50.0 °F 89% 30.16 in 10.0 mi NW 3.5 mph - N/A   Partly Cloudy